This is the latest recevied weather packets stored in our database for station/object W3BRL. If no packets are shown the sender has not sent any weather packets the latest 10 day(s).
| Time | Temp. | Humidity | Pressure | Rain* | Wind** | Luminosity | Snow |
|---|---|---|---|---|---|---|---|
| 1777570903 | 7.78° C | 76% | 1010.8 hPa | 0 mm | - | 165 W/m² | - |
| 1777570600 | 7.22° C | 76% | 1010.7 hPa | 0 mm | - | 256 W/m² | - |
| 1777570297 | 7.22° C | 76% | 1010.7 hPa | 0 mm | - | 261 W/m² | - |
| 1777569992 | 7.22° C | 78% | 1010.8 hPa | 0 mm | - | 239 W/m² | - |
| 1777569688 | 6.67° C | 78% | 1010.6 hPa | 0 mm | - | 293 W/m² | - |
| 1777569384 | 6.67° C | 78% | 1010.8 hPa | 0 mm | - | 194 W/m² | - |
| 1777569081 | 7.22° C | 77% | 1010.6 hPa | 0 mm | - | 105 W/m² | - |
| 1777568777 | 7.78° C | 77% | 1010.8 hPa | 0 mm | - | 111 W/m² | - |
| 1777568476 | 7.78° C | 76% | 1010.7 hPa | 0 mm | - | 163 W/m² | - |
| 1777568171 | 7.78° C | 77% | 1010.6 hPa | 0 mm | - | 307 W/m² | - |
| 1777567869 | 7.78° C | 77% | 1010.6 hPa | 0 mm | - | 315 W/m² | - |
| 1777567564 | 7.78° C | 78% | 1010.7 hPa | 0 mm | - | 389 W/m² | - |
| 1777567262 | 7.78° C | 78% | 1010.5 hPa | 0 mm | - | 332 W/m² | - |
| 1777566960 | 7.22° C | 81% | 1010.5 hPa | 0 mm | - | 477 W/m² | - |
| 1777566658 | 7.22° C | 81% | 1010.6 hPa | 0 mm | - | 634 W/m² | - |
| 1777566355 | 6.67° C | 82% | 1010.6 hPa | 0 mm | - | 204 W/m² | - |
| 1777566053 | 6.67° C | 83% | 1010.4 hPa | 0 mm | - | 134 W/m² | - |
| 1777565748 | 6.67° C | 87% | 1010.4 hPa | 0 mm | - | 208 W/m² | - |
| 1777565444 | 6.11° C | 90% | 1010.5 hPa | 0 mm | - | 329 W/m² | - |
| 1777565141 | 6.11° C | 90% | 1010.6 hPa | 0 mm | - | 113 W/m² | - |
| 1777564837 | 6.11° C | 91% | 1010.4 hPa | 0 mm | - | 132 W/m² | - |
| 1777564532 | 6.11° C | 91% | 1010.4 hPa | 0 mm | - | 103 W/m² | - |
| 1777564227 | 6.11° C | 90% | 1010.4 hPa | 0 mm | - | 102 W/m² | - |
| 1777563924 | 6.11° C | 90% | 1010.5 hPa | 0 mm | - | 86 W/m² | - |
| 1777563620 | 6.11° C | 89% | 1010.3 hPa | 0 mm | - | 79 W/m² | - |
* Rain latest hour (hover to see other rain measurements)
** Current wind speed in m/s (hover to see current wind gust speed)